Location: Newark
(33.2833°N, 8.3333°W)
Time: 16:05:29
(UTC+00:00)

Envisat - Pass Details

Date: 16 September 2019
Orbit: 764 x 766 km, 98.1° (Epoch: 21 October)

Event Time Altitude Azimuth Distance (km) Brightness Sun altitude
Rises 20:08:46 0° 213° (SSW) 3,218 6.4 -19.3°
Reaches altitude 10° 20:12:25 10° 241° (WSW) 2,298 6.0 -20.1°
Maximum altitude 20:14:41 13° 268° (W) 2,100 6.2 -20.5°
Drops below altitude 10° 20:16:58 10° 295° (WNW) 2,304 6.6 -21.0°
Sets 20:20:40 0° 323° (NW) 3,236 7.1 -21.7°
